Location: Zagreb
(45.8000°N, 16.0000°E)
Time: 22:34:48
(UTC+01:00)

Tiros 1 despin weight - Pass Details

Date: 26 January 2020
Orbit: 594 x 642 km, 48.2° (Epoch: 24 February)

Event Time Altitude Azimuth Distance (km) Brightness Sun altitude
Rises 10:55:35 0° 228° (SW) 2,846 ? 23.3°
Reaches altitude 10° 10:57:55 10° 223° (SW) 1,953 ? 23.5°
Maximum altitude 11:02:13 47° 150° (SSE) 817 ? 23.7°
Drops below altitude 10° 11:06:36 10° 76° (ENE) 1,991 ? 23.9°
Sets 11:09:00 0° 71° (ENE) 2,908 ? 24.0°
